Year,Month,Day,Hour,Minute,Value (Times are PST for temperature in C)
2017,05,26,00,00,11.40
2017,05,26,00,01,11.30
2017,05,26,00,02,11.30
2017,05,26,00,03,11.30
2017,05,26,00,04,11.30
2017,05,26,00,05,11.30
2017,05,26,00,06,11.30
2017,05,26,00,07,11.30
2017,05,26,00,08,11.30
2017,05,26,00,09,11.30
2017,05,26,00,10,11.30
2017,05,26,00,11,11.30
2017,05,26,00,12,11.40
2017,05,26,00,13,11.40
2017,05,26,00,14,11.30
2017,05,26,00,15,11.30
2017,05,26,00,16,11.30
2017,05,26,00,17,11.30
2017,05,26,00,18,11.30
2017,05,26,00,19,11.20
2017,05,26,00,20,11.20
2017,05,26,00,21,11.20
2017,05,26,00,22,11.20
2017,05,26,00,23,11.20
2017,05,26,00,24,11.20
2017,05,26,00,25,11.20
2017,05,26,00,26,11.20
2017,05,26,00,27,11.20
2017,05,26,00,28,11.20
2017,05,26,00,29,11.20
2017,05,26,00,30,11.20
2017,05,26,00,31,11.20
2017,05,26,00,32,11.20
2017,05,26,00,33,11.20
2017,05,26,00,34,11.20
2017,05,26,00,35,11.20
2017,05,26,00,36,11.10
2017,05,26,00,37,11.10
2017,05,26,00,38,11.10
2017,05,26,00,39,11.10
2017,05,26,00,40,11.10
2017,05,26,00,41,11.10
2017,05,26,00,42,11.00
2017,05,26,00,43,11.00
2017,05,26,00,44,10.90
2017,05,26,00,45,10.90
2017,05,26,00,46,10.80
2017,05,26,00,47,10.80
2017,05,26,00,48,10.90
2017,05,26,00,49,11.00
2017,05,26,00,50,11.00
2017,05,26,00,51,11.00
2017,05,26,00,52,11.00
2017,05,26,00,53,10.90
2017,05,26,00,54,10.90
2017,05,26,00,55,10.90
2017,05,26,00,56,10.90
2017,05,26,00,57,10.90
2017,05,26,00,58,10.90
2017,05,26,00,59,11.00
2017,05,26,01,00,11.00
2017,05,26,01,01,11.00
2017,05,26,01,02,11.00
2017,05,26,01,03,11.10
2017,05,26,01,04,11.10
2017,05,26,01,05,11.10
2017,05,26,01,06,11.10
2017,05,26,01,07,11.10
2017,05,26,01,08,11.00
2017,05,26,01,09,10.90
2017,05,26,01,10,10.90
2017,05,26,01,11,10.80
2017,05,26,01,12,10.80
2017,05,26,01,13,10.70
2017,05,26,01,14,10.70
2017,05,26,01,15,10.70
2017,05,26,01,16,10.70
2017,05,26,01,17,10.70
2017,05,26,01,18,10.70
2017,05,26,01,19,10.70
2017,05,26,01,20,10.70
2017,05,26,01,21,10.60
2017,05,26,01,22,10.60
2017,05,26,01,23,10.60
2017,05,26,01,24,10.60
2017,05,26,01,25,10.50
2017,05,26,01,26,10.50
2017,05,26,01,27,10.50
2017,05,26,01,28,10.50
2017,05,26,01,29,10.50
2017,05,26,01,30,10.40
2017,05,26,01,31,10.40
2017,05,26,01,32,10.40
2017,05,26,01,33,10.40
2017,05,26,01,34,10.40
2017,05,26,01,35,10.40
2017,05,26,01,36,10.40
2017,05,26,01,37,10.40
2017,05,26,01,38,10.30
2017,05,26,01,39,10.30
2017,05,26,01,40,10.30
2017,05,26,01,41,10.30
2017,05,26,01,42,10.30
2017,05,26,01,43,10.30
2017,05,26,01,44,10.30
2017,05,26,01,45,10.30
2017,05,26,01,46,10.20
2017,05,26,01,47,10.20
2017,05,26,01,48,10.20
2017,05,26,01,49,10.20
2017,05,26,01,50,10.20
2017,05,26,01,51,10.20
2017,05,26,01,52,10.20
2017,05,26,01,53,10.20
2017,05,26,01,54,10.20
2017,05,26,01,55,10.20
2017,05,26,01,56,10.10
2017,05,26,01,57,10.10
2017,05,26,01,58,10.10
2017,05,26,01,59,10.10
2017,05,26,02,00,10.10
2017,05,26,02,01,10.10
2017,05,26,02,02,10.10
2017,05,26,02,03,10.10
2017,05,26,02,04,10.00
2017,05,26,02,05,10.00
2017,05,26,02,06,10.00
2017,05,26,02,07,10.00
2017,05,26,02,08,10.00
2017,05,26,02,09,10.00
2017,05,26,02,10,9.90
2017,05,26,02,11,9.90
2017,05,26,02,12,9.90
2017,05,26,02,13,9.90
2017,05,26,02,14,9.90
2017,05,26,02,15,9.90
2017,05,26,02,16,9.80
2017,05,26,02,17,9.80
2017,05,26,02,18,9.80
2017,05,26,02,19,9.80
2017,05,26,02,20,9.80
2017,05,26,02,21,9.70
2017,05,26,02,22,9.70
2017,05,26,02,23,9.70
2017,05,26,02,24,9.70
2017,05,26,02,25,9.70
2017,05,26,02,26,9.70
2017,05,26,02,27,9.70
2017,05,26,02,28,9.70
2017,05,26,02,29,9.60
2017,05,26,02,30,9.60
2017,05,26,02,31,9.60
2017,05,26,02,32,9.60
2017,05,26,02,33,9.60
2017,05,26,02,34,9.60
2017,05,26,02,35,9.50
2017,05,26,02,36,9.50
2017,05,26,02,37,9.50
2017,05,26,02,38,9.50
2017,05,26,02,39,9.40
2017,05,26,02,40,9.40
2017,05,26,02,41,9.40
2017,05,26,02,42,9.40
2017,05,26,02,43,9.40
2017,05,26,02,44,9.40
2017,05,26,02,45,9.40
2017,05,26,02,46,9.40
2017,05,26,02,47,9.40
2017,05,26,02,48,9.40
2017,05,26,02,49,9.40
2017,05,26,02,50,9.40
2017,05,26,02,51,9.30
2017,05,26,02,52,9.30
2017,05,26,02,53,9.30
2017,05,26,02,54,9.30
2017,05,26,02,55,9.30
2017,05,26,02,56,9.30
2017,05,26,02,57,9.30
2017,05,26,02,58,9.30
2017,05,26,02,59,9.20
2017,05,26,03,00,9.20
2017,05,26,03,01,9.20
2017,05,26,03,02,9.20
2017,05,26,03,03,9.20
2017,05,26,03,04,9.20
2017,05,26,03,05,9.20
2017,05,26,03,06,9.20
2017,05,26,03,07,9.10
2017,05,26,03,08,9.20
2017,05,26,03,09,9.20
2017,05,26,03,10,9.20
2017,05,26,03,11,9.20
2017,05,26,03,12,9.20
2017,05,26,03,13,9.20
2017,05,26,03,14,9.20
2017,05,26,03,15,9.20
2017,05,26,03,16,9.20
2017,05,26,03,17,9.20
2017,05,26,03,18,9.20
2017,05,26,03,19,9.20
2017,05,26,03,20,9.10
2017,05,26,03,21,9.10
2017,05,26,03,22,9.10
2017,05,26,03,23,9.20
2017,05,26,03,24,9.20
2017,05,26,03,25,9.20
2017,05,26,03,26,9.10
2017,05,26,03,27,9.10
2017,05,26,03,28,9.10
2017,05,26,03,29,9.00
2017,05,26,03,30,9.00
2017,05,26,03,31,9.00
2017,05,26,03,32,9.00
2017,05,26,03,33,9.00
2017,05,26,03,34,8.90
2017,05,26,03,35,8.90
2017,05,26,03,36,8.90
2017,05,26,03,37,8.90
2017,05,26,03,38,8.90
2017,05,26,03,39,8.90
2017,05,26,03,40,8.90
2017,05,26,03,41,8.90
2017,05,26,03,42,8.90
2017,05,26,03,43,9.00
2017,05,26,03,44,9.00
2017,05,26,03,45,9.00
2017,05,26,03,46,8.90
2017,05,26,03,47,8.90
2017,05,26,03,48,8.90
2017,05,26,03,49,9.00
2017,05,26,03,50,9.00
2017,05,26,03,51,9.00
2017,05,26,03,52,8.90
2017,05,26,03,53,8.90
2017,05,26,03,54,8.90
2017,05,26,03,55,8.90
2017,05,26,03,56,8.90
2017,05,26,03,57,8.90
2017,05,26,03,58,8.90
2017,05,26,03,59,8.90
2017,05,26,04,00,8.90
2017,05,26,04,01,9.00
2017,05,26,04,02,9.00
2017,05,26,04,03,8.90
2017,05,26,04,04,8.90
2017,05,26,04,05,8.90
2017,05,26,04,06,8.90
2017,05,26,04,07,8.90
2017,05,26,04,08,8.90
2017,05,26,04,09,8.90
2017,05,26,04,10,8.90
2017,05,26,04,11,8.90
2017,05,26,04,12,8.90
2017,05,26,04,13,8.90
2017,05,26,04,14,8.90
2017,05,26,04,15,8.80
2017,05,26,04,16,8.80
2017,05,26,04,17,8.80
2017,05,26,04,18,8.80
2017,05,26,04,19,8.80
2017,05,26,04,20,8.80
2017,05,26,04,21,8.70
2017,05,26,04,22,8.70
2017,05,26,04,23,8.70
2017,05,26,04,24,8.70
2017,05,26,04,25,8.70
2017,05,26,04,26,8.70
2017,05,26,04,27,8.70
2017,05,26,04,28,8.70
2017,05,26,04,29,8.60
2017,05,26,04,30,8.60
2017,05,26,04,31,8.60
2017,05,26,04,32,8.60
2017,05,26,04,33,8.60
2017,05,26,04,34,8.60
2017,05,26,04,35,8.60
2017,05,26,04,36,8.60
2017,05,26,04,37,8.60
2017,05,26,04,38,8.60
2017,05,26,04,39,8.60
2017,05,26,04,40,8.60
2017,05,26,04,41,8.60
2017,05,26,04,42,8.60
2017,05,26,04,43,8.60
2017,05,26,04,44,8.60
2017,05,26,04,45,8.60
2017,05,26,04,46,8.60
2017,05,26,04,47,8.60
2017,05,26,04,48,8.60
2017,05,26,04,49,8.60
2017,05,26,04,50,8.60
2017,05,26,04,51,8.60
2017,05,26,04,52,8.60
2017,05,26,04,53,8.60
2017,05,26,04,54,8.60
2017,05,26,04,55,8.50
2017,05,26,04,56,8.50
2017,05,26,04,57,8.50
2017,05,26,04,58,8.50
2017,05,26,04,59,8.50
2017,05,26,05,00,8.60
2017,05,26,05,01,8.60
2017,05,26,05,02,8.60
2017,05,26,05,03,8.60
2017,05,26,05,04,8.60
2017,05,26,05,05,8.60
2017,05,26,05,06,8.60
2017,05,26,05,07,8.60
2017,05,26,05,08,8.60
2017,05,26,05,09,8.60
2017,05,26,05,10,8.60
2017,05,26,05,11,8.60
2017,05,26,05,12,8.60
2017,05,26,05,13,8.70
2017,05,26,05,14,8.70
2017,05,26,05,15,8.60
2017,05,26,05,16,8.60
2017,05,26,05,17,8.60
2017,05,26,05,18,8.60
2017,05,26,05,19,8.60
2017,05,26,05,20,8.60
2017,05,26,05,21,8.60
2017,05,26,05,22,8.70
2017,05,26,05,23,8.70
2017,05,26,05,24,8.70
2017,05,26,05,25,8.60
2017,05,26,05,26,8.60
2017,05,26,05,27,8.60
2017,05,26,05,28,8.60
2017,05,26,05,29,8.60
2017,05,26,05,30,8.60
2017,05,26,05,31,8.60
2017,05,26,05,32,8.60
2017,05,26,05,33,8.60
2017,05,26,05,34,8.60
2017,05,26,05,35,8.60
2017,05,26,05,36,8.60
2017,05,26,05,37,8.60
2017,05,26,05,38,8.60
2017,05,26,05,39,8.60
2017,05,26,05,40,8.60
2017,05,26,05,41,8.50
2017,05,26,05,42,8.60
2017,05,26,05,43,8.60
2017,05,26,05,44,8.60
2017,05,26,05,45,8.60
2017,05,26,05,46,8.60
2017,05,26,05,47,8.60
2017,05,26,05,48,8.60
2017,05,26,05,49,8.70
2017,05,26,05,50,8.70
2017,05,26,05,51,8.70
2017,05,26,05,52,8.70
2017,05,26,05,53,8.70
2017,05,26,05,54,8.70
2017,05,26,05,55,8.70
2017,05,26,05,56,8.60
2017,05,26,05,57,8.60
2017,05,26,05,58,8.60
2017,05,26,05,59,8.70
2017,05,26,06,00,8.70
2017,05,26,06,01,8.70
2017,05,26,06,02,8.70
2017,05,26,06,03,8.70
2017,05,26,06,04,8.70
2017,05,26,06,05,8.70
2017,05,26,06,06,8.70
2017,05,26,06,07,8.70
2017,05,26,06,08,8.70
2017,05,26,06,09,8.80
2017,05,26,06,10,8.70
2017,05,26,06,11,8.70
2017,05,26,06,12,8.70
2017,05,26,06,13,8.70
2017,05,26,06,14,8.70
2017,05,26,06,15,8.70
2017,05,26,06,16,8.80
2017,05,26,06,17,8.80
2017,05,26,06,18,8.80
2017,05,26,06,19,8.80
2017,05,26,06,20,8.80
2017,05,26,06,21,8.80
2017,05,26,06,22,8.80
2017,05,26,06,23,8.80
2017,05,26,06,24,8.80
2017,05,26,06,25,8.80
2017,05,26,06,26,8.80
2017,05,26,06,27,8.80
2017,05,26,06,28,8.80
2017,05,26,06,29,8.80
2017,05,26,06,30,8.80
2017,05,26,06,31,8.80
2017,05,26,06,32,8.80
2017,05,26,06,33,8.80
2017,05,26,06,34,8.80
2017,05,26,06,35,8.80
2017,05,26,06,36,8.80
2017,05,26,06,37,8.80
2017,05,26,06,38,8.90
2017,05,26,06,39,8.90
2017,05,26,06,40,8.90
2017,05,26,06,41,9.00
2017,05,26,06,42,9.00
2017,05,26,06,43,9.00
2017,05,26,06,44,9.00
2017,05,26,06,45,9.10
2017,05,26,06,46,9.10
2017,05,26,06,47,9.10
2017,05,26,06,48,9.00
2017,05,26,06,49,9.00
2017,05,26,06,50,9.00
2017,05,26,06,51,9.00
2017,05,26,06,52,9.00
2017,05,26,06,53,9.10
2017,05,26,06,54,9.10
2017,05,26,06,55,9.10
2017,05,26,06,56,9.10
2017,05,26,06,57,9.10
2017,05,26,06,58,9.20
2017,05,26,06,59,9.20
2017,05,26,07,00,9.20
2017,05,26,07,01,9.20
2017,05,26,07,02,9.20
2017,05,26,07,03,9.20
2017,05,26,07,04,9.30
2017,05,26,07,05,9.30
2017,05,26,07,06,9.30
2017,05,26,07,07,9.40
2017,05,26,07,08,9.40
2017,05,26,07,09,9.50
2017,05,26,07,10,9.60
2017,05,26,07,11,9.60
2017,05,26,07,12,9.70
2017,05,26,07,13,9.70
2017,05,26,07,14,9.80
2017,05,26,07,15,9.80
2017,05,26,07,16,9.90
2017,05,26,07,17,9.90
2017,05,26,07,18,10.00
2017,05,26,07,19,10.00
2017,05,26,07,20,10.20
2017,05,26,07,21,10.20
2017,05,26,07,22,10.30
2017,05,26,07,23,10.30
2017,05,26,07,24,10.40
2017,05,26,07,25,10.50
2017,05,26,07,26,10.60
2017,05,26,07,27,10.70
2017,05,26,07,28,10.80
2017,05,26,07,29,10.90
2017,05,26,07,30,11.00
2017,05,26,07,31,11.10
2017,05,26,07,32,11.10
2017,05,26,07,33,11.20
2017,05,26,07,34,11.20
2017,05,26,07,35,11.30
2017,05,26,07,36,11.30
2017,05,26,07,37,11.40
2017,05,26,07,38,11.50
2017,05,26,07,39,11.50
2017,05,26,07,40,11.60
2017,05,26,07,41,11.70
2017,05,26,07,42,11.70
2017,05,26,07,43,11.80
2017,05,26,07,44,11.80
2017,05,26,07,45,11.90
2017,05,26,07,46,11.90
2017,05,26,07,47,11.90
2017,05,26,07,48,11.90
2017,05,26,07,49,12.00
2017,05,26,07,50,12.00
2017,05,26,07,51,12.00
2017,05,26,07,52,12.10
2017,05,26,07,53,12.10
2017,05,26,07,54,12.20
2017,05,26,07,55,12.20
2017,05,26,07,56,12.30
2017,05,26,07,57,12.30
2017,05,26,07,58,12.40
2017,05,26,07,59,12.40
2017,05,26,08,00,12.50
2017,05,26,08,01,12.50
2017,05,26,08,02,12.60
2017,05,26,08,03,12.70
2017,05,26,08,04,12.70
2017,05,26,08,05,12.80
2017,05,26,08,06,12.80
2017,05,26,08,07,12.80
2017,05,26,08,08,12.90
2017,05,26,08,09,13.00
2017,05,26,08,10,13.10
2017,05,26,08,11,13.10
2017,05,26,08,12,13.20
2017,05,26,08,13,13.20
2017,05,26,08,14,13.30
2017,05,26,08,15,13.30
2017,05,26,08,16,13.30
2017,05,26,08,17,13.30
2017,05,26,08,18,13.40
2017,05,26,08,19,13.40
2017,05,26,08,20,13.40
2017,05,26,08,21,13.50
2017,05,26,08,22,13.60
2017,05,26,08,23,13.70
2017,05,26,08,24,13.70
2017,05,26,08,25,13.70
2017,05,26,08,26,13.80
2017,05,26,08,27,13.80
2017,05,26,08,28,13.80
2017,05,26,08,29,13.80
2017,05,26,08,30,13.90
2017,05,26,08,31,13.90
2017,05,26,08,32,13.90
2017,05,26,08,33,13.90
2017,05,26,08,34,13.90
2017,05,26,08,35,13.90
2017,05,26,08,36,13.90
2017,05,26,08,37,13.90
2017,05,26,08,38,14.00
2017,05,26,08,39,14.00
2017,05,26,08,40,14.10
2017,05,26,08,41,14.10
2017,05,26,08,42,14.10
2017,05,26,08,43,14.20
2017,05,26,08,44,14.20
2017,05,26,08,45,14.20
2017,05,26,08,46,14.30
2017,05,26,08,47,14.30
2017,05,26,08,48,14.30
2017,05,26,08,49,14.30
2017,05,26,08,50,14.40
2017,05,26,08,51,14.40
2017,05,26,08,52,14.50
2017,05,26,08,53,14.50
2017,05,26,08,54,14.60
2017,05,26,08,55,14.60
2017,05,26,08,56,14.70
2017,05,26,08,57,14.80
2017,05,26,08,58,14.80
2017,05,26,08,59,14.90
2017,05,26,09,00,14.90
2017,05,26,09,01,15.00
2017,05,26,09,02,15.10
2017,05,26,09,03,15.20
2017,05,26,09,04,15.20
2017,05,26,09,05,15.30
2017,05,26,09,06,15.30
2017,05,26,09,07,15.40
2017,05,26,09,08,15.40
2017,05,26,09,09,15.50
2017,05,26,09,10,15.60
2017,05,26,09,11,15.70
2017,05,26,09,12,15.70
2017,05,26,09,13,15.70
2017,05,26,09,14,15.80
2017,05,26,09,15,15.80
2017,05,26,09,16,15.80
2017,05,26,09,17,15.70
2017,05,26,09,18,15.70
2017,05,26,09,19,15.70
2017,05,26,09,20,15.70
2017,05,26,09,21,15.70
2017,05,26,09,22,15.70
2017,05,26,09,23,15.60
2017,05,26,09,24,15.60
2017,05,26,09,25,15.60
2017,05,26,09,26,15.60
2017,05,26,09,27,15.60
2017,05,26,09,28,15.60
2017,05,26,09,29,15.60
2017,05,26,09,30,15.70
2017,05,26,09,31,15.70
2017,05,26,09,32,15.80
2017,05,26,09,33,15.90
2017,05,26,09,34,16.00
2017,05,26,09,35,16.10
2017,05,26,09,36,16.20
2017,05,26,09,37,16.30
2017,05,26,09,38,16.30
2017,05,26,09,39,16.40
2017,05,26,09,40,16.50
2017,05,26,09,41,16.50
2017,05,26,09,42,16.50
2017,05,26,09,43,16.60
2017,05,26,09,44,16.60
2017,05,26,09,45,16.70
2017,05,26,09,46,16.80
2017,05,26,09,47,16.80
2017,05,26,09,48,16.80
2017,05,26,09,49,16.80
2017,05,26,09,50,16.80
2017,05,26,09,51,16.90
2017,05,26,09,52,16.90
2017,05,26,09,53,17.00
2017,05,26,09,54,17.00
2017,05,26,09,55,17.10
2017,05,26,09,56,17.10
2017,05,26,09,57,17.10
2017,05,26,09,58,17.10
2017,05,26,09,59,17.20
2017,05,26,10,00,17.20
2017,05,26,10,01,17.30
2017,05,26,10,02,17.40
2017,05,26,10,03,17.50
2017,05,26,10,04,17.50
2017,05,26,10,05,17.60
2017,05,26,10,06,17.60
2017,05,26,10,07,17.60
2017,05,26,10,08,17.60
2017,05,26,10,09,17.50
2017,05,26,10,10,17.40
2017,05,26,10,11,17.30
2017,05,26,10,12,17.30
2017,05,26,10,13,17.30
2017,05,26,10,14,17.30
2017,05,26,10,15,17.30
2017,05,26,10,16,17.40
2017,05,26,10,17,17.40
2017,05,26,10,18,17.50
2017,05,26,10,19,17.50
2017,05,26,10,20,17.60
2017,05,26,10,21,17.70
2017,05,26,10,22,17.70
2017,05,26,10,23,17.80
2017,05,26,10,24,17.80
2017,05,26,10,25,17.90
2017,05,26,10,26,18.00
2017,05,26,10,27,18.10
2017,05,26,10,28,18.10
2017,05,26,10,29,18.20
2017,05,26,10,30,18.10
2017,05,26,10,31,18.10
2017,05,26,10,32,18.10
2017,05,26,10,33,18.00
2017,05,26,10,34,18.00
2017,05,26,10,35,18.10
2017,05,26,10,36,18.10
2017,05,26,10,37,18.10
2017,05,26,10,38,18.20
2017,05,26,10,39,18.20
2017,05,26,10,40,18.20
2017,05,26,10,41,18.20
2017,05,26,10,42,18.20
2017,05,26,10,43,18.10
2017,05,26,10,44,18.10
2017,05,26,10,45,18.10
2017,05,26,10,46,18.10
2017,05,26,10,47,18.10
2017,05,26,10,48,18.20
2017,05,26,10,49,18.20
2017,05,26,10,50,18.20
2017,05,26,10,51,18.20
2017,05,26,10,52,18.20
2017,05,26,10,53,18.20
2017,05,26,10,54,18.20
2017,05,26,10,55,18.30
2017,05,26,10,56,18.30
2017,05,26,10,57,18.40
2017,05,26,10,58,18.50
2017,05,26,10,59,18.60
2017,05,26,11,00,18.60
2017,05,26,11,01,18.70
2017,05,26,11,02,18.70
2017,05,26,11,03,18.70
2017,05,26,11,04,18.70
2017,05,26,11,05,18.80
2017,05,26,11,06,18.80
2017,05,26,11,07,18.80
2017,05,26,11,08,18.90
2017,05,26,11,09,18.90
2017,05,26,11,10,18.90
2017,05,26,11,11,19.00
2017,05,26,11,12,19.10
2017,05,26,11,13,19.20
2017,05,26,11,14,19.30
2017,05,26,11,15,19.40
2017,05,26,11,16,19.50
2017,05,26,11,17,19.60
2017,05,26,11,18,19.60
2017,05,26,11,19,19.70
2017,05,26,11,20,19.70
2017,05,26,11,21,19.80
2017,05,26,11,22,19.80
2017,05,26,11,23,19.80
2017,05,26,11,24,19.80
2017,05,26,11,25,19.70
2017,05,26,11,26,19.70
2017,05,26,11,27,19.70
2017,05,26,11,28,19.60
2017,05,26,11,29,19.50
2017,05,26,11,30,19.40
2017,05,26,11,31,19.40
2017,05,26,11,32,19.40
2017,05,26,11,33,19.40
2017,05,26,11,34,19.40
2017,05,26,11,35,19.40
2017,05,26,11,36,19.40
2017,05,26,11,37,19.50
2017,05,26,11,38,19.50
2017,05,26,11,39,19.40
2017,05,26,11,40,19.40
2017,05,26,11,41,19.40
2017,05,26,11,42,19.40
2017,05,26,11,43,19.40
2017,05,26,11,44,19.40
2017,05,26,11,45,19.50
2017,05,26,11,46,19.50
2017,05,26,11,47,19.60
2017,05,26,11,48,19.60
2017,05,26,11,49,19.50
2017,05,26,11,50,19.40
2017,05,26,11,51,19.40
2017,05,26,11,52,19.40
2017,05,26,11,53,19.40
2017,05,26,11,54,19.40
2017,05,26,11,55,19.40
2017,05,26,11,56,19.30
2017,05,26,11,57,19.30
2017,05,26,11,58,19.30
2017,05,26,11,59,19.40
2017,05,26,12,00,19.40
2017,05,26,12,01,19.40
2017,05,26,12,02,19.40
2017,05,26,12,03,19.40
2017,05,26,12,04,19.50
2017,05,26,12,05,19.50
2017,05,26,12,06,19.60
2017,05,26,12,07,19.50
2017,05,26,12,08,19.50
2017,05,26,12,09,19.50
2017,05,26,12,10,19.40
2017,05,26,12,11,19.40
2017,05,26,12,12,19.40
2017,05,26,12,13,19.40
2017,05,26,12,14,19.40
2017,05,26,12,15,19.40
2017,05,26,12,16,19.40
2017,05,26,12,17,19.40
2017,05,26,12,18,19.40
2017,05,26,12,19,19.50
2017,05,26,12,20,19.50
2017,05,26,12,21,19.50
2017,05,26,12,22,19.40
2017,05,26,12,23,19.40
2017,05,26,12,24,19.30
2017,05,26,12,25,19.30
2017,05,26,12,26,19.30
2017,05,26,12,27,19.40
2017,05,26,12,28,19.40
2017,05,26,12,29,19.40
2017,05,26,12,30,19.40
2017,05,26,12,31,19.50
2017,05,26,12,32,19.50
2017,05,26,12,33,19.50
2017,05,26,12,34,19.50
2017,05,26,12,35,19.50
2017,05,26,12,36,19.40
2017,05,26,12,37,19.30
2017,05,26,12,38,19.20
2017,05,26,12,39,19.10
2017,05,26,12,40,19.10
2017,05,26,12,41,19.00
2017,05,26,12,42,19.10
2017,05,26,12,43,19.20
2017,05,26,12,44,19.30
2017,05,26,12,45,19.30
2017,05,26,12,46,19.40
2017,05,26,12,47,19.40
2017,05,26,12,48,19.50
2017,05,26,12,49,19.60
2017,05,26,12,50,19.70
2017,05,26,12,51,19.80
2017,05,26,12,52,19.90
2017,05,26,12,53,20.00
2017,05,26,12,54,20.00
2017,05,26,12,55,20.10
2017,05,26,12,56,20.10
2017,05,26,12,57,20.10
2017,05,26,12,58,20.10
2017,05,26,12,59,20.00
2017,05,26,13,00,20.00
2017,05,26,13,01,19.90
2017,05,26,13,02,19.90
2017,05,26,13,03,19.90
2017,05,26,13,04,19.90
2017,05,26,13,05,19.90
2017,05,26,13,06,19.90
2017,05,26,13,07,19.90
2017,05,26,13,08,19.80
2017,05,26,13,09,19.70
2017,05,26,13,10,19.70
2017,05,26,13,11,19.70
2017,05,26,13,12,19.80
2017,05,26,13,13,19.90
2017,05,26,13,14,20.00
2017,05,26,13,15,20.20
2017,05,26,13,16,20.30
2017,05,26,13,17,20.50
2017,05,26,13,18,20.60
2017,05,26,13,19,20.80
2017,05,26,13,20,20.90
2017,05,26,13,21,21.00
2017,05,26,13,22,21.10
2017,05,26,13,23,21.20
2017,05,26,13,24,21.30
2017,05,26,13,25,21.20
2017,05,26,13,26,21.20
2017,05,26,13,27,21.20
2017,05,26,13,28,21.10
2017,05,26,13,29,21.00
2017,05,26,13,30,20.90
2017,05,26,13,31,20.70
2017,05,26,13,32,20.70
2017,05,26,13,33,20.70
2017,05,26,13,34,20.70
2017,05,26,13,35,20.80
2017,05,26,13,36,20.90
2017,05,26,13,37,21.00
2017,05,26,13,38,21.20
2017,05,26,13,39,21.30
2017,05,26,13,40,21.40
2017,05,26,13,41,21.30
2017,05,26,13,42,21.30
2017,05,26,13,43,21.30
2017,05,26,13,44,21.30
2017,05,26,13,45,21.30
2017,05,26,13,46,21.40
2017,05,26,13,47,21.40
2017,05,26,13,48,21.40
2017,05,26,13,49,21.40
2017,05,26,13,50,21.40
2017,05,26,13,51,21.30
2017,05,26,13,52,21.30
2017,05,26,13,53,21.30
2017,05,26,13,54,21.30
2017,05,26,13,55,21.30
2017,05,26,13,56,21.20
2017,05,26,13,57,21.20
2017,05,26,13,58,21.10
2017,05,26,13,59,21.10
2017,05,26,14,00,21.20
2017,05,26,14,01,21.30
2017,05,26,14,02,21.40
2017,05,26,14,03,21.40
2017,05,26,14,04,21.50
2017,05,26,14,05,21.50
2017,05,26,14,06,21.50
2017,05,26,14,07,21.40
2017,05,26,14,08,21.30
2017,05,26,14,09,21.20
2017,05,26,14,10,21.10
2017,05,26,14,11,20.90
2017,05,26,14,12,20.80
2017,05,26,14,13,20.70
2017,05,26,14,14,20.60
2017,05,26,14,15,20.50
2017,05,26,14,16,20.40
2017,05,26,14,17,20.30
2017,05,26,14,18,20.30
2017,05,26,14,19,20.30
2017,05,26,14,20,20.30
2017,05,26,14,21,20.40
2017,05,26,14,22,20.40
2017,05,26,14,23,20.50
2017,05,26,14,24,20.60
2017,05,26,14,25,20.70
2017,05,26,14,26,20.70
2017,05,26,14,27,20.80
2017,05,26,14,28,20.80
2017,05,26,14,29,20.90
2017,05,26,14,30,21.00
2017,05,26,14,31,21.10
2017,05,26,14,32,21.10
2017,05,26,14,33,21.20
2017,05,26,14,34,21.30
2017,05,26,14,35,21.30
2017,05,26,14,36,21.40
2017,05,26,14,37,21.50
2017,05,26,14,38,21.60
2017,05,26,14,39,21.70
2017,05,26,14,40,21.80
2017,05,26,14,41,21.90
2017,05,26,14,42,21.90
2017,05,26,14,43,21.90
2017,05,26,14,44,21.90
2017,05,26,14,45,21.90
2017,05,26,14,46,21.90
2017,05,26,14,47,21.90
2017,05,26,14,48,21.90
2017,05,26,14,49,21.90
2017,05,26,14,50,21.90
2017,05,26,14,51,21.80
2017,05,26,14,52,21.80
2017,05,26,14,53,21.70
2017,05,26,14,54,21.70
2017,05,26,14,55,21.60
2017,05,26,14,56,21.50
2017,05,26,14,57,21.50
2017,05,26,14,58,21.50
2017,05,26,14,59,21.50
2017,05,26,15,00,21.50
2017,05,26,15,01,21.50
2017,05,26,15,02,21.60
2017,05,26,15,03,21.60
2017,05,26,15,04,21.70
2017,05,26,15,05,21.60
2017,05,26,15,06,21.60
2017,05,26,15,07,21.60
2017,05,26,15,08,21.60
2017,05,26,15,09,21.70
2017,05,26,15,10,21.70
2017,05,26,15,11,21.70
2017,05,26,15,12,21.70
2017,05,26,15,13,21.70
2017,05,26,15,14,21.70
2017,05,26,15,15,21.70
2017,05,26,15,16,21.70
2017,05,26,15,17,21.70
2017,05,26,15,18,21.80
2017,05,26,15,19,21.80
2017,05,26,15,20,21.80
2017,05,26,15,21,21.90
2017,05,26,15,22,22.00
2017,05,26,15,23,22.10
2017,05,26,15,24,22.10
2017,05,26,15,25,22.10
2017,05,26,15,26,21.90
2017,05,26,15,27,21.70
2017,05,26,15,28,21.50
2017,05,26,15,29,21.30
2017,05,26,15,30,21.10
2017,05,26,15,31,21.00
2017,05,26,15,32,21.00
2017,05,26,15,33,21.00
2017,05,26,15,34,21.10
2017,05,26,15,35,21.20
2017,05,26,15,36,21.40
2017,05,26,15,37,21.50
2017,05,26,15,38,21.70
2017,05,26,15,39,21.90
2017,05,26,15,40,22.00
2017,05,26,15,41,22.10
2017,05,26,15,42,22.20
2017,05,26,15,43,22.30
2017,05,26,15,44,22.30
2017,05,26,15,45,22.20
2017,05,26,15,46,22.00
2017,05,26,15,47,21.90
2017,05,26,15,48,21.80
2017,05,26,15,49,21.90
2017,05,26,15,50,21.90
2017,05,26,15,51,22.00
2017,05,26,15,52,22.10
2017,05,26,15,53,22.20
2017,05,26,15,54,22.40
2017,05,26,15,55,22.50
2017,05,26,15,56,22.70
2017,05,26,15,57,22.80
2017,05,26,15,58,23.10
2017,05,26,15,59,23.20
2017,05,26,16,00,23.40
2017,05,26,16,01,23.60
2017,05,26,16,02,23.80
2017,05,26,16,03,23.80
2017,05,26,16,04,23.80
2017,05,26,16,05,23.90
2017,05,26,16,06,23.90
2017,05,26,16,07,23.90
2017,05,26,16,08,24.00
2017,05,26,16,09,24.10
2017,05,26,16,10,24.20
2017,05,26,16,11,24.10
2017,05,26,16,12,24.10
2017,05,26,16,13,24.00
2017,05,26,16,14,23.90
2017,05,26,16,15,23.80
2017,05,26,16,16,23.70
2017,05,26,16,17,23.60
2017,05,26,16,18,23.40
2017,05,26,16,19,23.30
2017,05,26,16,20,23.20
2017,05,26,16,21,23.10
2017,05,26,16,22,23.10
2017,05,26,16,23,23.10
2017,05,26,16,24,23.10
2017,05,26,16,25,23.20
2017,05,26,16,26,23.30
2017,05,26,16,27,23.40
2017,05,26,16,28,23.40
2017,05,26,16,29,23.40
2017,05,26,16,30,23.30
2017,05,26,16,31,23.30
2017,05,26,16,32,23.30
2017,05,26,16,33,23.30
2017,05,26,16,34,23.30
2017,05,26,16,35,23.30
2017,05,26,16,36,23.20
2017,05,26,16,37,23.20
2017,05,26,16,38,23.20
2017,05,26,16,39,23.20
2017,05,26,16,40,23.30
2017,05,26,16,41,23.40
2017,05,26,16,42,23.40
2017,05,26,16,43,23.40
2017,05,26,16,44,23.40
2017,05,26,16,45,23.40
2017,05,26,16,46,23.30
2017,05,26,16,47,23.20
2017,05,26,16,48,23.00
2017,05,26,16,49,22.90
2017,05,26,16,50,22.80
2017,05,26,16,51,22.70
2017,05,26,16,52,22.60
2017,05,26,16,53,22.60
2017,05,26,16,54,22.60
2017,05,26,16,55,22.60
2017,05,26,16,56,22.60
2017,05,26,16,57,22.60
2017,05,26,16,58,22.50
2017,05,26,16,59,22.40
2017,05,26,17,00,22.30
2017,05,26,17,01,22.20
2017,05,26,17,02,22.20
2017,05,26,17,03,22.10
2017,05,26,17,04,22.00
2017,05,26,17,05,21.80
2017,05,26,17,06,21.70
2017,05,26,17,07,21.60
2017,05,26,17,08,21.50
2017,05,26,17,09,21.50
2017,05,26,17,10,21.50
2017,05,26,17,11,21.50
2017,05,26,17,12,21.50
2017,05,26,17,13,21.50
2017,05,26,17,14,21.40
2017,05,26,17,15,21.40
2017,05,26,17,16,21.40
2017,05,26,17,17,21.30
2017,05,26,17,18,21.30
2017,05,26,17,19,21.30
2017,05,26,17,20,21.30
2017,05,26,17,21,21.40
2017,05,26,17,22,21.40
2017,05,26,17,23,21.50
2017,05,26,17,24,21.50
2017,05,26,17,25,21.50
2017,05,26,17,26,21.50
2017,05,26,17,27,21.60
2017,05,26,17,28,21.60
2017,05,26,17,29,21.60
2017,05,26,17,30,21.60
2017,05,26,17,31,21.60
2017,05,26,17,32,21.60